Regional Weather Roundup
Issued by NWS

Home | Current Version | Previous Version | Graphics & Text | Print | Product List | Glossary On
Versions: 1 2 3 4 5 6 7 8 9 10 11 12 13 14 15 16 17 18 19 20 21 22 23 24 25 26 27 28 29 30 31 32 33 34 35 36 37 38 39 40 41 42 43 44 45 46 47 48 49 50
000
ASUS43 KMKX 281721
RWRWI

WISCONSIN REGIONAL WEATHER ROUNDUP
NATIONAL WEATHER SERVICE MILWAUKEE/SULLIVAN WI
1200 PM CDT SAT MAR 28 2015

NOTE: "FAIR" INDICATES FEW OR NO CLOUDS BELOW 12,000 FEET WITH NO
SIGNIFICANT WEATHER AND/OR OBSTRUCTIONS TO VISIBILITY.

WIZ001-002-006>008-014>016-023>028-281800-
NORTHWEST WISCONSIN

CITY           SKY/WX    TMP DP  RH WIND       PRES   REMARKS
SUPERIOR ARPT  SUNNY     39   9  29 SW9       30.21F WCI  33
ASHLAND        SUNNY     40   5  23 S9        30.22F WCI  34
HAYWARD        SUNNY     35   8  32 S14       30.21F WCI  26
SIREN          SUNNY     37   7  28 S9G16     30.22F WCI  31
CUMBERLAND     SUNNY     34  10  37 S8G18     30.23F WCI  27
RICE LAKE      SUNNY     37   8  31 S8        30.24F WCI  30
CHETEK         SUNNY     36   9  32 S9        30.24F WCI  29
LADYSMITH      SUNNY     37   9  31 SW8       30.25F WCI  31
EAU CLAIRE     SUNNY     37   9  31 S12       30.26F WCI  29
MENOMONIE      SUNNY     38   9  30 SE9       30.26S WCI  31
NEW RICHMOND   SUNNY     37   7  28 SW12      30.24S WCI  29
OSCEOLA        SUNNY     37   4  25 S8        30.27F WCI  31
$$

WIZ003>005-009-010-017-018-281800-
NORTH CENTRAL WISCONSIN

CITY           SKY/WX    TMP DP  RH WIND       PRES   REMARKS
MANITOWISH WTR SUNNY     33   4  28 SW6       30.19F WCI  28
ARBOR VITAE    SUNNY     33   5  31 S7        30.20F WCI  27
WOODRUFF       SUNNY     33   5  31 S7        30.20F WCI  27
RHINELANDER    SUNNY     33   4  29 VRB5      30.21F WCI  29
EAGLE RIVER    SUNNY     32   1  27 CALM      30.20F
LAND O LAKES   SUNNY     34   1  24 SW5       30.20F WCI  30
PHILLIPS       SUNNY     35   8  32 W8        30.21F WCI  28
TOMAHAWK       SUNNY     34   7  31 CALM      30.23F
MEDFORD        SUNNY     32  12  43 W5        30.24S WCI  27
MERRILL        SUNNY     33  11  39 CALM      30.24F
$$

WIZ029-030-035-036-043>047-281800-
CENTRAL WISCONSIN

CITY           SKY/WX    TMP DP  RH WIND       PRES   REMARKS
WAUSAU         SUNNY     34  10  37 S6        30.24F WCI  29
MOSINEE        SUNNY     32  12  43 S8        30.26F WCI  25
MARSHFIELD     SUNNY     36   8  31 CALM      30.26S
STEVENS POINT  SUNNY     32   9  37 S6        30.28S WCI  26
WAUPACA        SUNNY     38   8  29 SW6       30.29F WCI  34
WAUTOMA        SUNNY     36   7  30 VRB7      30.30F WCI  30
WISC RAPIDS    SUNNY     36   4  26 VRB3      30.29F
CAMP DOUGLAS   SUNNY     37   7  28 S5        30.28F WCI  34
$$

WIZ011>013-019>022-031-037>040-048>050-281800-
NORTHEAST WISCONSIN

CITY           SKY/WX    TMP DP  RH WIND       PRES   REMARKS
ANTIGO         SUNNY     31  11  43 W9        30.24F WCI  23
SHAWANO        SUNNY     35  15  43 CALM      30.29F
OCONTO         SUNNY     31  16  52 SE9       30.31F WCI  23
STURGEON BAY   SUNNY     30  10  43 CALM      30.33F
GREEN BAY      SUNNY     32  19  58 S7        30.31F WCI  26
MANITOWOC      PTSUNNY   31  19  61 S8        30.33F WCI  23
APPLETON       SUNNY     32  12  43 SW9       30.31F WCI  24
CLINTONVILLE   SUNNY     34  10  37 W3        30.29F
OSHKOSH        SUNNY     32  13  45 CALM      30.31F
$$

WIZ032>034-041-042-053>061-281800-
SOUTHWEST WISCONSIN

CITY           SKY/WX    TMP DP  RH WIND       PRES   REMARKS
LA CROSSE      SUNNY     38  14  37 S8        30.30F WCI  32
SPARTA         SUNNY     37   6  27 S8        30.30S WCI  31
VIROQUA        SUNNY     32  12  43 SW7       30.27F WCI  26
BOSCOBEL       SUNNY     35  12  38 MISG      30.32F
PRAIRIE DU CHI SUNNY     34   9  35 CALM      30.31F
PLATTEVILLE    SUNNY     33  12  41 SE6       30.30F WCI  28
$$

WIZ056-057-062-063-064-067-068-281800-
SOUTH CENTRAL WISCONSIN

CITY           SKY/WX    TMP DP  RH WIND       PRES   REMARKS
REEDSBURG      SUNNY     34  11  38 S6        30.30S WCI  29
BARABOO/DELLS  SUNNY     35   9  34 SW7       30.29F WCI  29
LONE ROCK      SUNNY     33  13  43 CALM      30.32F
MINERAL POINT  SUNNY     32  18  55 S3        30.30F
MADISON        MOSUNNY   33  11  39 S7        30.32F WCI  27
MIDDLETON      SUNNY     35  11  37 S3        30.32S
WATERTOWN      SUNNY     33  10  39 CALM      30.31F
MONROE         SUNNY     32  18  55 SE3       30.31S
JANESVILLE     SUNNY     34  10  37 CALM      30.33F
$$

WIZ051-052-058>065-066-070>072-281800-
SOUTHEAST WISCONSIN

CITY           SKY/WX    TMP DP  RH WIND       PRES   REMARKS
MILWAUKEE      MOSUNNY   31  16  54 VRB3      30.34S
WAUKESHA       MOSUNNY   30  12  47 W5        30.34S WCI  25
MILWAUKEE/TIMM SUNNY     34  10  37 CALM      30.35R
RACINE         SUNNY     30  16  56 SE7       30.36S WCI  23
BURLINGTON     SUNNY     31  12  44 S5        30.34S WCI  27
KENOSHA        MOSUNNY   33  17  51 NE7       30.34S WCI  27
FOND DU LAC    SUNNY     34  11  38 VRB6      30.31F WCI  29
SHEBOYGAN      SUNNY     32  15  49 S5        30.33F WCI  27
WEST BEND      SUNNY     32   9  37 CALM      30.32F
JUNEAU         SUNNY     32  13  44 SW5       30.32F WCI  28
$$

LSZ147-162-281800-
LAKE SUPERIOR

STATION/POSITION TIME  TEMP    WIND        PRES    WAVE
                       AIR SEA DIR/SP/G            HT/PER
                 (UTC) (F)     (DEG/KT/KT) (MB)    (FT/S)
DEVILS ISLAND    1700   29     240/  4/  5 1024.6F
PORT WING        1640   29     330/  5/  6 1023.7F
SAXON HARBOR     1640   30      30/  1/  2 1023.7F
$$

LMZ867-665-643>646-281800-
LAKE MICHIGAN

STATION/POSITION TIME  TEMP    WIND        PRES    WAVE
                       AIR SEA DIR/SP/G            HT/PER
                 (UTC) (F)     (DEG/KT/KT) (MB)    (FT/S)
NORTHPORT PIER   1623   24     330/  4/ 10 1027.1R
SISTER BAY       1617   31     320/  7/  7   N/A
KEWAUNEE LAKESHO 1700   28     150/  6/ 10 1025.9F
SHEBOYGAN LAKESH 1700   27     140/  7/  8 1028.6F
PORT WASHINGTON  1640   30     130/  6/  8 1028.1S
MILWAUKEE LAKESH 1700   28      90/  5/  6   N/A
KENOSHA   LAKESH 1700   27      80/  5/  8 1027.8S
$$

TC  - TEMPERATURE IN CELSIUS
VSB - VISIBILITY IN STATUTE MILES
WCI - WIND CHILL INDEX
HX  - HEAT INDEX



USA.gov is the U.S. government's official web portal to all federal, state and local government web resources and services.